Home > Weather > Canton > Past weeks

Flag for USA Past Weather in Canton, Ohio, USA — Yesterday and Last 2 Weeks

Now
84 °F

Overcast.


Feels Like: 88 °F
Forecast: 72 / 90 °F
Wind: 8 mph from Northwest

Location: Akron-Canton Regional Airport

Current Time: Aug 28, 2016 at 6:37:46 PM

Latest Report: Aug 28, 2016 at 5:51 PM


Visibility: 10 mi

Pressure: 30.13 "Hg

Humidity: 61%

Dew Point: 69 °F

Location of CantonLocation

Past Weather in Canton — Graph

°F

Canton Temperature Yesterday

Maximum temperature yesterday: 90 °F (at 3:51 PM)
Minimum temperature yesterday: 67 °F (at 5:51 AM)
Average temperature yesterday: 77 °F

High & Low Weather Summary for the Past Weeks

 TemperatureHumidityPressure
High91 °F (Aug 28, 4:51 PM)94% (Aug 14, 12:51 AM)30.32 "Hg (Aug 14, 12:51 AM)
Low58 °F (Aug 22, 4:51 AM)32% (Aug 26, 3:51 PM)29.69 "Hg (Aug 21, 2:51 AM)
Average75 °F72%30.06 "Hg
* Reported Aug 13 4:51 PM — Aug 28 4:51 PM, Canton, Weather by CustomWeather, © 2016

Note: Actual official high and low records may vary slightly from our data, if they occured in-between our weather recording intervals... More about our weather records

Advertising

Canton Weather History for the Previous 24 Hours

Scroll right to see more
 ConditionsComfort  
Time TempWeatherWind HumidityBarometerVisibility
4:51 PM
Sun, Aug 28
91 °FThunderstorms. Scattered clouds.9 mph50%30.12 "Hg10 mi
3:51 PM90 °FScattered clouds.8 mph52%30.15 "Hg10 mi
2:51 PM90 °FScattered clouds.5 mph50%30.16 "Hg10 mi
1:51 PM88 °FScattered clouds.No wind54%30.19 "Hg10 mi
12:51 PM83 °FBroken clouds.3 mph63%30.21 "Hg10 mi
11:51 AM79 °FBroken clouds.No wind72%30.22 "Hg10 mi
10:51 AM77 °FPartly sunny.No wind77%30.22 "Hg10 mi
9:51 AM77 °FPartly sunny.5 mph74%30.21 "Hg10 mi
8:51 AM75 °FPartly sunny.5 mph76%30.21 "Hg10 mi
7:51 AM73 °FPartly sunny.5 mph79%30.19 "Hg10 mi
6:51 AM71 °FPassing clouds.No wind84%30.18 "Hg10 mi
5:51 AM70 °FPartly cloudy.6 mph84%30.15 "Hg10 mi
4:51 AM71 °FPassing clouds.No wind84%30.14 "Hg10 mi
3:51 AM72 °FPassing clouds.3 mph84%30.12 "Hg10 mi
2:51 AM71 °FClear.No wind87%30.13 "Hg8 mi
1:51 AM71 °FClear.3 mph87%30.13 "Hg8 mi
12:51 AM71 °FClear.6 mph87%30.14 "Hg8 mi
11:51 PM
Sat, Aug 27
71 °FClear.6 mph87%30.13 "Hg10 mi
10:51 PM70 °FPassing clouds.6 mph93%30.14 "Hg7 mi
9:51 PM73 °FPassing clouds.3 mph84%30.13 "Hg10 mi
8:51 PM73 °FPartly sunny.9 mph84%30.13 "Hg10 mi
7:51 PM85 °FThunderstorms. Broken clouds.3 mph57%30.12 "Hg10 mi
6:51 PM87 °FBroken clouds.3 mph51%30.10 "Hg10 mi
Weather by CustomWeather, © 2016

See weather overviewHow to use our weather pages